Time,TemperatureF,DewpointF,PressureIn,WindDirection,WindDirectionDegrees,WindSpeedMPH,WindSpeedGustMPH,Humidity,HourlyPrecipIn,Conditions,Clouds,dailyrainin,SoftwareType,DateUTC
2013-08-10 00:00:00,57.6,54.3,30.04,SSE,168,3.0,7.0,89,0.00,,,0.00,meteohub,2013-08-10 07:00:00,
2013-08-10 00:05:00,57.6,54.3,30.04,South,172,3.0,8.0,89,0.00,,,0.00,meteohub,2013-08-10 07:05:00,
2013-08-10 00:10:00,57.6,54.3,30.04,South,183,8.0,8.0,89,0.00,,,0.00,meteohub,2013-08-10 07:10:00,
2013-08-10 00:15:00,57.6,54.3,30.05,SSE,161,3.0,8.0,89,0.00,,,0.00,meteohub,2013-08-10 07:15:00,
2013-08-10 00:20:00,57.6,54.3,30.05,SSW,212,4.0,8.0,89,0.00,,,0.00,meteohub,2013-08-10 07:20:00,
2013-08-10 00:25:00,57.6,54.3,30.05,South,189,5.0,8.0,89,0.00,,,0.00,meteohub,2013-08-10 07:25:00,
2013-08-10 00:30:00,57.6,54.3,30.05,SSW,205,4.0,8.0,89,0.00,,,0.00,meteohub,2013-08-10 07:30:00,
2013-08-10 00:35:00,57.6,54.3,30.05,SSW,205,1.0,8.0,89,0.00,,,0.00,meteohub,2013-08-10 07:35:00,
2013-08-10 00:40:00,57.4,54.1,30.05,SSW,206,4.0,9.0,89,0.00,,,0.00,meteohub,2013-08-10 07:40:00,
2013-08-10 00:45:00,57.6,54.3,30.05,WSW,239,3.0,8.0,89,0.00,,,0.00,meteohub,2013-08-10 07:45:00,
2013-08-10 00:50:00,57.6,54.3,30.05,WSW,243,4.0,8.0,89,0.00,,,0.00,meteohub,2013-08-10 07:50:00,
2013-08-10 00:55:00,57.6,54.3,30.05,WSW,257,6.0,8.0,89,0.00,,,0.00,meteohub,2013-08-10 07:55:00,
2013-08-10 01:00:00,57.6,54.3,30.05,WSW,254,6.0,9.0,89,0.00,,,0.00,meteohub,2013-08-10 08:00:00,
2013-08-10 01:05:00,57.6,54.3,30.05,SSW,212,6.0,9.0,89,0.00,,,0.00,meteohub,2013-08-10 08:05:00,
2013-08-10 01:10:00,57.6,54.3,30.05,SSW,211,3.0,9.0,89,0.00,,,0.00,meteohub,2013-08-10 08:10:00,
2013-08-10 01:15:00,57.6,54.3,30.05,SW,217,5.0,9.0,89,0.00,,,0.00,meteohub,2013-08-10 08:15:00,
2013-08-10 01:20:00,57.6,54.3,30.05,WSW,239,5.0,9.0,89,0.00,,,0.00,meteohub,2013-08-10 08:20:00,
2013-08-10 01:25:00,57.6,54.3,30.04,SW,225,6.0,9.0,89,0.00,,,0.00,meteohub,2013-08-10 08:25:00,
2013-08-10 01:30:00,57.6,54.3,30.05,WSW,237,5.0,9.0,89,0.00,,,0.00,meteohub,2013-08-10 08:30:00,
2013-08-10 01:35:00,57.6,54.3,30.05,WSW,237,4.0,8.0,89,0.00,,,0.00,meteohub,2013-08-10 08:35:00,
2013-08-10 01:40:00,57.7,54.5,30.04,SW,236,0.0,7.0,89,0.00,,,0.00,meteohub,2013-08-10 08:40:00,
2013-08-10 01:45:00,57.7,54.5,30.05,WSW,237,2.0,5.0,89,0.00,,,0.00,meteohub,2013-08-10 08:45:00,
2013-08-10 01:50:00,57.7,54.5,30.05,SW,233,0.0,6.0,89,0.00,,,0.00,meteohub,2013-08-10 08:50:00,
2013-08-10 01:55:00,57.7,54.5,30.05,SW,231,2.0,6.0,89,0.00,,,0.00,meteohub,2013-08-10 08:55:00,
2013-08-10 02:00:00,57.9,54.3,30.05,WSW,247,6.0,6.0,88,0.00,,,0.00,meteohub,2013-08-10 09:00:00,
2013-08-10 02:05:00,57.9,54.3,30.05,WSW,250,5.0,6.0,88,0.00,,,0.00,meteohub,2013-08-10 09:05:00,
2013-08-10 02:10:00,58.1,54.5,30.05,WSW,258,3.0,6.0,88,0.00,,,0.00,meteohub,2013-08-10 09:10:00,
2013-08-10 02:15:00,58.1,54.5,30.05,West,260,4.0,7.0,88,0.00,,,0.00,meteohub,2013-08-10 09:15:00,
2013-08-10 02:21:00,58.1,54.3,30.05,West,279,4.0,7.0,87,0.00,,,0.00,meteohub,2013-08-10 09:21:00,
2013-08-10 02:26:00,57.9,54.1,30.05,West,278,1.0,7.0,87,0.00,,,0.00,meteohub,2013-08-10 09:26:00,
2013-08-10 02:31:00,58.1,54.3,30.05,West,278,1.0,7.0,87,0.00,,,0.00,meteohub,2013-08-10 09:31:00,
2013-08-10 02:36:00,58.1,54.3,30.05,West,278,0.0,6.0,87,0.00,,,0.00,meteohub,2013-08-10 09:36:00,
2013-08-10 02:41:00,58.3,54.7,30.05,West,278,0.0,4.0,88,0.00,,,0.00,meteohub,2013-08-10 09:41:00,
2013-08-10 02:46:00,58.3,54.5,30.05,West,279,1.0,3.0,87,0.00,,,0.00,meteohub,2013-08-10 09:46:00,
2013-08-10 02:51:00,58.1,54.3,30.05,West,278,0.0,3.0,87,0.00,,,0.00,meteohub,2013-08-10 09:51:00,
2013-08-10 02:56:00,58.1,54.5,30.05,West,278,1.0,3.0,88,0.00,,,0.00,meteohub,2013-08-10 09:56:00,
2013-08-10 03:01:00,58.1,54.5,30.05,West,278,0.0,3.0,88,0.00,,,0.00,meteohub,2013-08-10 10:01:00,
2013-08-10 03:06:00,58.1,54.5,30.05,West,279,1.0,1.0,88,0.00,,,0.00,meteohub,2013-08-10 10:06:00,
2013-08-10 03:11:00,58.1,54.5,30.05,West,277,5.0,5.0,88,0.00,,,0.00,meteohub,2013-08-10 10:11:00,
2013-08-10 03:16:00,57.9,54.3,30.05,SW,226,2.0,5.0,88,0.00,,,0.00,meteohub,2013-08-10 10:16:00,
2013-08-10 03:21:00,57.9,54.3,30.05,SW,216,5.0,6.0,88,0.00,,,0.00,meteohub,2013-08-10 10:21:00,
2013-08-10 03:26:00,57.7,54.5,30.05,SW,216,1.0,6.0,89,0.00,,,0.00,meteohub,2013-08-10 10:26:00,
2013-08-10 03:31:00,57.7,54.5,30.04,SW,216,2.0,6.0,89,0.00,,,0.00,meteohub,2013-08-10 10:31:00,
2013-08-10 03:36:00,57.7,54.5,30.04,SSW,206,5.0,6.0,89,0.00,,,0.00,meteohub,2013-08-10 10:36:00,
2013-08-10 03:41:00,57.7,54.5,30.04,SSW,201,2.0,5.0,89,0.00,,,0.00,meteohub,2013-08-10 10:41:00,
2013-08-10 03:46:00,57.6,54.3,30.04,SSW,201,2.0,5.0,89,0.00,,,0.00,meteohub,2013-08-10 10:46:00,
2013-08-10 03:51:00,57.6,54.3,30.04,South,179,1.0,5.0,89,0.00,,,0.00,meteohub,2013-08-10 10:51:00,
2013-08-10 03:56:00,57.6,54.3,30.04,South,179,3.0,6.0,89,0.00,,,0.00,meteohub,2013-08-10 10:56:00,
2013-08-10 04:01:00,57.4,54.5,30.04,South,179,0.0,6.0,90,0.00,,,0.00,meteohub,2013-08-10 11:01:00,
2013-08-10 04:06:00,57.4,54.5,30.04,South,179,2.0,5.0,90,0.00,,,0.00,meteohub,2013-08-10 11:06:00,
2013-08-10 04:11:00,57.4,54.5,30.04,South,179,0.0,4.0,90,0.00,,,0.00,meteohub,2013-08-10 11:11:00,
2013-08-10 04:16:00,57.4,54.5,30.04,South,179,0.0,4.0,90,0.00,,,0.00,meteohub,2013-08-10 11:16:00,
2013-08-10 04:21:00,57.4,54.5,30.04,South,179,0.0,4.0,90,0.00,,,0.00,meteohub,2013-08-10 11:21:00,
2013-08-10 04:26:00,57.6,54.7,30.04,South,179,0.0,3.0,90,0.00,,,0.00,meteohub,2013-08-10 11:26:00,
2013-08-10 04:31:00,57.6,54.7,30.04,South,179,1.0,1.0,90,0.00,,,0.00,meteohub,2013-08-10 11:31:00,
2013-08-10 04:36:00,57.7,54.9,30.04,SSW,200,2.0,2.0,90,0.00,,,0.00,meteohub,2013-08-10 11:36:00,
2013-08-10 04:41:00,57.7,54.5,30.04,SW,232,5.0,5.0,89,0.00,,,0.00,meteohub,2013-08-10 11:41:00,
2013-08-10 04:46:00,57.7,54.5,30.04,WSW,241,1.0,5.0,89,0.00,,,0.00,meteohub,2013-08-10 11:46:00,
2013-08-10 04:52:00,57.7,54.5,30.04,WSW,241,0.0,5.0,89,0.00,,,0.00,meteohub,2013-08-10 11:52:00,
2013-08-10 04:57:00,57.7,54.5,30.04,WSW,241,0.0,5.0,89,0.00,,,0.00,meteohub,2013-08-10 11:57:00,
2013-08-10 05:02:00,57.7,54.5,30.04,WSW,241,0.0,3.0,89,0.00,,,0.00,meteohub,2013-08-10 12:02:00,
2013-08-10 05:07:00,57.7,54.5,30.04,WSW,241,0.0,2.0,89,0.00,,,0.00,meteohub,2013-08-10 12:07:00,
2013-08-10 05:12:00,57.7,54.5,30.04,WSW,241,0.0,2.0,89,0.00,,,0.00,meteohub,2013-08-10 12:12:00,
2013-08-10 05:17:00,57.7,54.5,30.04,WSW,241,0.0,2.0,89,0.00,,,0.00,meteohub,2013-08-10 12:17:00,
2013-08-10 05:22:00,57.7,54.5,30.04,WSW,241,5.0,5.0,89,0.00,,,0.00,meteohub,2013-08-10 12:22:00,
2013-08-10 05:27:00,57.9,54.7,30.04,SW,219,5.0,6.0,89,0.00,,,0.00,meteohub,2013-08-10 12:27:00,
2013-08-10 05:32:00,57.9,54.7,30.04,South,180,5.0,7.0,89,0.00,,,0.00,meteohub,2013-08-10 12:32:00,
2013-08-10 05:37:00,57.9,54.7,30.04,SSW,194,4.0,7.0,89,0.00,,,0.00,meteohub,2013-08-10 12:37:00,
2013-08-10 05:42:00,57.9,54.7,30.04,SSW,198,4.0,7.0,89,0.00,,,0.00,meteohub,2013-08-10 12:42:00,
2013-08-10 05:47:00,57.7,54.9,30.04,SSW,199,2.0,7.0,90,0.00,,,0.00,meteohub,2013-08-10 12:47:00,
2013-08-10 05:52:00,57.7,54.9,30.05,South,181,4.0,7.0,90,0.00,,,0.00,meteohub,2013-08-10 12:52:00,
2013-08-10 05:57:00,57.6,54.7,30.05,SSE,154,7.0,7.0,90,0.00,,,0.00,meteohub,2013-08-10 12:57:00,
2013-08-10 06:02:00,57.6,54.7,30.05,South,187,5.0,9.0,90,0.00,,,0.00,meteohub,2013-08-10 13:02:00,
2013-08-10 06:07:00,57.4,54.5,30.05,South,189,2.0,9.0,90,0.00,,,0.00,meteohub,2013-08-10 13:07:00,
2013-08-10 06:12:00,57.4,54.5,30.05,SSW,193,3.0,9.0,90,0.00,,,0.00,meteohub,2013-08-10 13:12:00,
2013-08-10 06:17:00,57.4,54.5,30.05,SSW,193,2.0,8.0,90,0.00,,,0.00,meteohub,2013-08-10 13:17:00,
2013-08-10 06:22:00,57.6,54.7,30.05,SSW,193,2.0,7.0,90,0.00,,,0.00,meteohub,2013-08-10 13:22:00,
2013-08-10 06:27:00,57.6,54.7,30.05,SSW,206,6.0,6.0,90,0.00,,,0.00,meteohub,2013-08-10 13:27:00,
2013-08-10 06:32:00,57.4,54.5,30.05,SSW,210,3.0,7.0,90,0.00,,,0.00,meteohub,2013-08-10 13:32:00,
2013-08-10 06:37:00,57.6,54.7,30.06,SSW,206,2.0,7.0,90,0.00,,,0.00,meteohub,2013-08-10 13:37:00,
2013-08-10 06:42:00,57.6,54.7,30.06,SW,216,5.0,7.0,90,0.00,,,0.00,meteohub,2013-08-10 13:42:00,
2013-08-10 06:47:00,57.6,54.7,30.06,SSW,209,2.0,7.0,90,0.00,,,0.00,meteohub,2013-08-10 13:47:00,
2013-08-10 06:52:00,57.7,54.9,30.06,SW,214,6.0,8.0,90,0.00,,,0.00,meteohub,2013-08-10 13:52:00,
2013-08-10 06:57:00,57.6,54.3,30.06,SW,216,6.0,8.0,89,0.00,,,0.00,meteohub,2013-08-10 13:57:00,
2013-08-10 07:03:00,57.6,54.3,30.06,SW,218,5.0,8.0,89,0.00,,,0.00,meteohub,2013-08-10 14:03:00,
2013-08-10 07:08:00,57.6,54.3,30.06,SW,218,4.0,8.0,89,0.00,,,0.00,meteohub,2013-08-10 14:08:00,
2013-08-10 07:13:00,57.6,54.3,30.06,SSW,208,6.0,8.0,89,0.00,,,0.00,meteohub,2013-08-10 14:13:00,
2013-08-10 07:18:00,57.4,54.5,30.06,SSW,203,7.0,9.0,90,0.00,,,0.00,meteohub,2013-08-10 14:18:00,
2013-08-10 07:23:00,57.4,54.5,30.06,SSW,206,4.0,9.0,90,0.00,,,0.00,meteohub,2013-08-10 14:23:00,
2013-08-10 07:28:00,57.4,54.5,30.06,SSW,210,7.0,8.0,90,0.00,,,0.00,meteohub,2013-08-10 14:28:00,
2013-08-10 07:33:00,57.4,54.1,30.06,SSW,210,3.0,8.0,89,0.00,,,0.00,meteohub,2013-08-10 14:33:00,
2013-08-10 07:38:00,57.4,54.5,30.07,SSW,212,4.0,7.0,90,0.00,,,0.00,meteohub,2013-08-10 14:38:00,
2013-08-10 07:43:00,57.4,54.5,30.07,SSW,196,4.0,7.0,90,0.00,,,0.00,meteohub,2013-08-10 14:43:00,
2013-08-10 07:48:00,57.4,54.5,30.07,SSW,201,5.0,7.0,90,0.00,,,0.00,meteohub,2013-08-10 14:48:00,
2013-08-10 07:53:00,57.2,54.3,30.07,SSW,200,6.0,8.0,90,0.00,,,0.00,meteohub,2013-08-10 14:53:00,
2013-08-10 07:58:00,57.2,54.3,30.07,SSW,193,3.0,8.0,90,0.00,,,0.00,meteohub,2013-08-10 14:58:00,
2013-08-10 08:03:00,57.2,54.3,30.07,South,191,3.0,8.0,90,0.00,,,0.00,meteohub,2013-08-10 15:03:00,
2013-08-10 08:08:00,57.2,54.3,30.07,South,191,3.0,7.0,90,0.00,,,0.00,meteohub,2013-08-10 15:08:00,
2013-08-10 08:13:00,57.2,54.3,30.07,South,191,2.0,7.0,90,0.00,,,0.00,meteohub,2013-08-10 15:13:00,
2013-08-10 08:18:00,57.2,54.3,30.08,South,191,4.0,6.0,90,0.00,,,0.00,meteohub,2013-08-10 15:18:00,
2013-08-10 08:23:00,57.2,54.3,30.08,South,190,5.0,7.0,90,0.00,,,0.00,meteohub,2013-08-10 15:23:00,
2013-08-10 08:28:00,57.4,54.5,30.08,South,189,4.0,7.0,90,0.00,,,0.00,meteohub,2013-08-10 15:28:00,
2013-08-10 08:33:00,57.4,54.5,30.08,South,188,4.0,7.0,90,0.00,,,0.00,meteohub,2013-08-10 15:33:00,
2013-08-10 08:38:00,57.4,54.5,30.08,South,174,5.0,7.0,90,0.00,,,0.00,meteohub,2013-08-10 15:38:00,
2013-08-10 08:43:00,57.4,54.5,30.08,South,174,2.0,7.0,90,0.00,,,0.00,meteohub,2013-08-10 15:43:00,
2013-08-10 08:48:00,57.6,54.7,30.08,SSE,167,4.0,7.0,90,0.00,,,0.00,meteohub,2013-08-10 15:48:00,
2013-08-10 08:53:00,57.7,54.9,30.08,SSE,152,7.0,7.0,90,0.00,,,0.00,meteohub,2013-08-10 15:53:00,
2013-08-10 08:58:00,57.7,54.9,30.08,SE,146,4.0,7.0,90,0.00,,,0.00,meteohub,2013-08-10 15:58:00,
2013-08-10 09:03:00,57.9,55.0,30.08,SSW,199,3.0,9.0,90,0.00,,,0.00,meteohub,2013-08-10 16:03:00,
2013-08-10 09:09:00,58.3,55.4,30.08,SSW,193,4.0,9.0,90,0.00,,,0.00,meteohub,2013-08-10 16:09:00,
2013-08-10 09:14:00,58.3,55.0,30.08,South,184,6.0,9.0,89,0.00,,,0.00,meteohub,2013-08-10 16:14:00,
2013-08-10 09:19:00,58.5,55.6,30.09,South,188,5.0,8.0,90,0.00,,,0.00,meteohub,2013-08-10 16:19:00,
2013-08-10 09:24:00,58.5,55.2,30.09,South,188,3.0,8.0,89,0.00,,,0.00,meteohub,2013-08-10 16:24:00,
2013-08-10 09:29:00,58.5,55.2,30.09,SW,215,5.0,8.0,89,0.00,,,0.00,meteohub,2013-08-10 16:29:00,
2013-08-10 09:34:00,58.5,55.2,30.09,South,189,5.0,7.0,89,0.00,,,0.00,meteohub,2013-08-10 16:34:00,
2013-08-10 09:39:00,58.5,54.9,30.09,SSW,193,6.0,9.0,88,0.00,,,0.00,meteohub,2013-08-10 16:39:00,
2013-08-10 09:44:00,58.6,55.0,30.09,SSW,193,7.0,9.0,88,0.00,,,0.00,meteohub,2013-08-10 16:44:00,
2013-08-10 09:49:00,58.5,54.9,30.09,SSW,197,2.0,9.0,88,0.00,,,0.00,meteohub,2013-08-10 16:49:00,
2013-08-10 09:54:00,58.6,55.0,30.09,South,184,5.0,8.0,88,0.00,,,0.00,meteohub,2013-08-10 16:54:00,
2013-08-10 09:59:00,58.6,55.0,30.09,South,181,7.0,8.0,88,0.00,,,0.00,meteohub,2013-08-10 16:59:00,
2013-08-10 10:04:00,58.6,55.0,30.09,SW,221,4.0,9.0,88,0.00,,,0.00,meteohub,2013-08-10 17:04:00,
2013-08-10 10:09:00,58.6,55.0,30.09,SSE,168,5.0,9.0,88,0.00,,,0.00,meteohub,2013-08-10 17:09:00,
2013-08-10 10:14:00,58.6,55.0,30.09,SSW,192,7.0,9.0,88,0.00,,,0.00,meteohub,2013-08-10 17:14:00,
2013-08-10 10:19:00,58.8,55.2,30.09,SSW,205,6.0,9.0,88,0.00,,,0.00,meteohub,2013-08-10 17:19:00,
2013-08-10 10:24:00,58.8,55.0,30.09,South,189,7.0,9.0,87,0.00,,,0.00,meteohub,2013-08-10 17:24:00,
2013-08-10 10:29:00,58.8,55.0,30.09,SSE,162,4.0,10.0,87,0.00,,,0.00,meteohub,2013-08-10 17:29:00,
2013-08-10 10:34:00,59.0,55.4,30.10,South,186,3.0,10.0,88,0.00,,,0.00,meteohub,2013-08-10 17:34:00,
2013-08-10 10:39:00,59.2,55.4,30.10,South,179,6.0,10.0,87,0.00,,,0.00,meteohub,2013-08-10 17:39:00,
2013-08-10 10:44:00,59.0,55.2,30.10,South,175,6.0,10.0,87,0.00,,,0.00,meteohub,2013-08-10 17:44:00,
2013-08-10 10:49:00,59.0,55.2,30.10,South,179,5.0,9.0,87,0.00,,,0.00,meteohub,2013-08-10 17:49:00,
2013-08-10 10:54:00,59.4,55.4,30.10,South,177,5.0,9.0,87,0.00,,,0.00,meteohub,2013-08-10 17:54:00,
2013-08-10 10:59:00,59.5,55.6,30.10,South,182,8.0,10.0,87,0.00,,,0.00,meteohub,2013-08-10 17:59:00,
2013-08-10 11:04:00,59.7,55.6,30.10,SSW,202,5.0,11.0,86,0.00,,,0.00,meteohub,2013-08-10 18:04:00,
2013-08-10 11:09:00,59.9,55.4,30.10,SSE,152,3.0,11.0,85,0.00,,,0.00,meteohub,2013-08-10 18:09:00,
2013-08-10 11:14:00,60.3,56.1,30.10,SSW,201,7.0,10.0,86,0.00,,,0.00,meteohub,2013-08-10 18:14:00,
2013-08-10 11:19:00,60.4,55.6,30.10,SSW,194,9.0,10.0,84,0.00,,,0.00,meteohub,2013-08-10 18:19:00,
2013-08-10 11:24:00,60.6,56.5,30.10,SSE,167,6.0,10.0,86,0.00,,,0.00,meteohub,2013-08-10 18:24:00,
2013-08-10 11:29:00,61.3,56.5,30.10,SSW,211,7.0,10.0,84,0.00,,,0.00,meteohub,2013-08-10 18:29:00,
2013-08-10 11:34:00,61.3,56.5,30.10,SSW,210,7.0,13.0,84,0.00,,,0.00,meteohub,2013-08-10 18:34:00,
2013-08-10 11:40:00,61.5,55.9,30.10,SW,233,10.0,14.0,82,0.00,,,0.00,meteohub,2013-08-10 18:40:00,
2013-08-10 11:45:00,61.3,56.5,30.10,SW,220,10.0,14.0,84,0.00,,,0.00,meteohub,2013-08-10 18:45:00,
2013-08-10 11:50:00,61.3,56.5,30.10,South,187,8.0,15.0,84,0.00,,,0.00,meteohub,2013-08-10 18:50:00,
2013-08-10 11:55:00,61.2,56.7,30.10,SSW,197,6.0,16.0,85,0.00,,,0.00,meteohub,2013-08-10 18:55:00,
2013-08-10 12:00:00,61.2,56.3,30.10,SW,220,11.0,16.0,84,0.00,,,0.00,meteohub,2013-08-10 19:00:00,
2013-08-10 12:05:00,60.4,55.9,30.10,SSW,201,14.0,16.0,85,0.00,,,0.00,meteohub,2013-08-10 19:05:00,
2013-08-10 12:10:00,60.6,56.5,30.09,SW,220,15.0,16.0,86,0.00,,,0.00,meteohub,2013-08-10 19:10:00,
2013-08-10 12:15:00,60.6,56.1,30.09,SSW,208,15.0,18.0,85,0.00,,,0.00,meteohub,2013-08-10 19:15:00,
2013-08-10 12:20:00,60.8,56.7,30.09,South,183,11.0,18.0,86,0.00,,,0.00,meteohub,2013-08-10 19:20:00,
2013-08-10 12:25:00,60.4,55.9,30.09,SSW,192,9.0,17.0,85,0.00,,,0.00,meteohub,2013-08-10 19:25:00,
2013-08-10 12:30:00,61.5,57.0,30.09,South,191,10.0,18.0,85,0.00,,,0.00,meteohub,2013-08-10 19:30:00,
2013-08-10 12:35:00,61.0,56.1,30.09,SW,223,11.0,18.0,84,0.00,,,0.00,meteohub,2013-08-10 19:35:00,
2013-08-10 12:40:00,61.3,57.2,30.09,SSE,168,6.0,17.0,86,0.00,,,0.00,meteohub,2013-08-10 19:40:00,
2013-08-10 12:45:00,61.9,56.7,30.09,SSW,199,15.0,17.0,83,0.00,,,0.00,meteohub,2013-08-10 19:45:00,
2013-08-10 12:50:00,61.5,57.0,30.09,SSW,201,8.0,17.0,85,0.00,,,0.00,meteohub,2013-08-10 19:50:00,
2013-08-10 12:55:00,61.3,56.8,30.09,South,185,16.0,17.0,85,0.00,,,0.00,meteohub,2013-08-10 19:55:00,
2013-08-10 13:00:00,61.5,57.0,30.09,SSW,205,11.0,17.0,85,0.00,,,0.00,meteohub,2013-08-10 20:00:00,
2013-08-10 13:05:00,61.3,56.8,30.09,South,183,11.0,17.0,85,0.00,,,0.00,meteohub,2013-08-10 20:05:00,
2013-08-10 13:10:00,61.5,57.0,30.09,SSW,192,12.0,17.0,85,0.00,,,0.00,meteohub,2013-08-10 20:10:00,
2013-08-10 13:15:00,61.9,57.0,30.09,SSW,197,8.0,17.0,84,0.00,,,0.00,meteohub,2013-08-10 20:15:00,
2013-08-10 13:20:00,61.3,56.5,30.09,SW,222,12.0,17.0,84,0.00,,,0.00,meteohub,2013-08-10 20:20:00,
2013-08-10 13:25:00,61.5,57.0,30.08,South,176,12.0,16.0,85,0.00,,,0.00,meteohub,2013-08-10 20:25:00,
2013-08-10 13:30:00,61.7,57.2,30.08,South,186,13.0,16.0,85,0.00,,,0.00,meteohub,2013-08-10 20:30:00,
2013-08-10 13:31:00,61.9,57.4,30.08,South,181,10.0,16.0,85,0.00,,,0.00,meteohub,2013-08-10 20:31:00,
2013-08-10 13:36:00,62.2,57.0,30.08,SSW,195,10.0,17.0,83,0.00,,,0.00,meteohub,2013-08-10 20:36:00,
2013-08-10 13:41:00,62.2,56.7,30.08,SSW,206,11.0,17.0,82,0.00,,,0.00,meteohub,2013-08-10 20:41:00,
2013-08-10 13:46:00,62.4,56.8,30.08,SSW,201,7.0,17.0,82,0.00,,,0.00,meteohub,2013-08-10 20:46:00,
2013-08-10 13:51:00,62.4,56.8,30.08,SW,222,7.0,16.0,82,0.00,,,0.00,meteohub,2013-08-10 20:51:00,
2013-08-10 13:56:00,62.8,56.8,30.08,SSW,208,12.0,16.0,81,0.00,,,0.00,meteohub,2013-08-10 20:56:00,
2013-08-10 14:01:00,63.1,57.6,30.08,South,172,11.0,16.0,82,0.00,,,0.00,meteohub,2013-08-10 21:01:00,
2013-08-10 14:06:00,63.1,57.2,30.08,SSW,202,11.0,16.0,81,0.00,,,0.00,meteohub,2013-08-10 21:06:00,
2013-08-10 14:11:00,63.0,57.4,30.08,SSW,198,12.0,16.0,82,0.00,,,0.00,meteohub,2013-08-10 21:11:00,
2013-08-10 14:16:00,63.1,57.9,30.08,South,183,10.0,16.0,83,0.00,,,0.00,meteohub,2013-08-10 21:16:00,
2013-08-10 14:21:00,63.7,58.1,30.08,South,177,12.0,16.0,82,0.00,,,0.00,meteohub,2013-08-10 21:21:00,
2013-08-10 14:26:00,64.2,57.6,30.07,South,189,10.0,14.0,79,0.00,,,0.00,meteohub,2013-08-10 21:26:00,
2013-08-10 14:31:00,64.6,58.3,30.08,SW,215,10.0,14.0,80,0.00,,,0.00,meteohub,2013-08-10 21:31:00,
2013-08-10 14:36:00,64.9,57.9,30.07,South,172,9.0,14.0,78,0.00,,,0.00,meteohub,2013-08-10 21:36:00,
2013-08-10 14:41:00,64.6,57.9,30.07,SSW,206,7.0,13.0,79,0.00,,,0.00,meteohub,2013-08-10 21:41:00,
2013-08-10 14:46:00,64.6,57.9,30.07,South,185,5.0,13.0,79,0.00,,,0.00,meteohub,2013-08-10 21:46:00,
2013-08-10 14:51:00,64.4,58.1,30.07,South,190,8.0,14.0,80,0.00,,,0.00,meteohub,2013-08-10 21:51:00,
2013-08-10 14:56:00,64.4,57.4,30.07,South,175,5.0,14.0,78,0.00,,,0.00,meteohub,2013-08-10 21:56:00,
2013-08-10 15:01:00,64.6,58.3,30.07,South,180,6.0,14.0,80,0.00,,,0.00,meteohub,2013-08-10 22:01:00,
2013-08-10 15:07:00,64.8,58.5,30.06,SSW,206,4.0,11.0,80,0.00,,,0.00,meteohub,2013-08-10 22:07:00,
2013-08-10 15:12:00,65.3,57.9,30.06,SW,221,2.0,11.0,77,0.00,,,0.00,meteohub,2013-08-10 22:12:00,
2013-08-10 15:17:00,65.3,57.9,30.06,SSW,212,7.0,11.0,77,0.00,,,0.00,meteohub,2013-08-10 22:17:00,
2013-08-10 15:22:00,65.7,58.3,30.06,South,178,6.0,10.0,77,0.00,,,0.00,meteohub,2013-08-10 22:22:00,
2013-08-10 15:27:00,65.8,58.1,30.06,SW,225,10.0,10.0,76,0.00,,,0.00,meteohub,2013-08-10 22:27:00,
2013-08-10 15:32:00,65.7,58.3,30.06,SSW,213,7.0,11.0,77,0.00,,,0.00,meteohub,2013-08-10 22:32:00,
2013-08-10 15:37:00,66.0,58.3,30.06,South,173,8.0,11.0,76,0.00,,,0.00,meteohub,2013-08-10 22:37:00,
2013-08-10 15:42:00,65.7,58.3,30.06,SSW,196,7.0,11.0,77,0.00,,,0.00,meteohub,2013-08-10 22:42:00,
2013-08-10 15:47:00,66.0,58.3,30.06,South,183,10.0,11.0,76,0.00,,,0.00,meteohub,2013-08-10 22:47:00,
2013-08-10 15:52:00,65.7,58.3,30.06,SSE,164,7.0,12.0,77,0.00,,,0.00,meteohub,2013-08-10 22:52:00,
2013-08-10 15:57:00,65.7,57.9,30.06,SSW,193,6.0,12.0,76,0.00,,,0.00,meteohub,2013-08-10 22:57:00,
2013-08-10 16:02:00,65.8,58.1,30.06,SW,214,5.0,12.0,76,0.00,,,0.00,meteohub,2013-08-10 23:02:00,
2013-08-10 16:07:00,66.0,57.9,30.06,South,174,7.0,10.0,75,0.00,,,0.00,meteohub,2013-08-10 23:07:00,
2013-08-10 16:12:00,65.8,58.1,30.06,South,183,7.0,10.0,76,0.00,,,0.00,meteohub,2013-08-10 23:12:00,
2013-08-10 16:17:00,65.8,57.7,30.05,SSW,207,5.0,10.0,75,0.00,,,0.00,meteohub,2013-08-10 23:17:00,
2013-08-10 16:22:00,66.0,58.3,30.05,SSW,213,4.0,10.0,76,0.00,,,0.00,meteohub,2013-08-10 23:22:00,
2013-08-10 16:27:00,66.2,58.5,30.05,South,191,3.0,10.0,76,0.00,,,0.00,meteohub,2013-08-10 23:27:00,
2013-08-10 16:32:00,66.2,58.1,30.05,South,183,7.0,11.0,75,0.00,,,0.00,meteohub,2013-08-10 23:32:00,
2013-08-10 16:37:00,65.8,58.1,30.05,South,179,8.0,11.0,76,0.00,,,0.00,meteohub,2013-08-10 23:37:00,
2013-08-10 16:42:00,66.0,58.3,30.05,SSW,199,8.0,11.0,76,0.00,,,0.00,meteohub,2013-08-10 23:42:00,
2013-08-10 16:47:00,65.7,57.9,30.05,SSW,200,6.0,11.0,76,0.00,,,0.00,meteohub,2013-08-10 23:47:00,
2013-08-10 16:52:00,65.8,58.1,30.05,SSW,195,7.0,11.0,76,0.00,,,0.00,meteohub,2013-08-10 23:52:00,
2013-08-10 16:57:00,66.4,58.3,30.05,SSW,210,9.0,11.0,75,0.00,,,0.00,meteohub,2013-08-10 23:57:00,
2013-08-10 17:02:00,65.8,58.1,30.05,SSW,195,8.0,12.0,76,0.00,,,0.00,meteohub,2013-08-11 00:02:00,
2013-08-10 17:08:00,65.3,57.9,30.05,SSW,192,6.0,12.0,77,0.00,,,0.00,meteohub,2013-08-11 00:08:00,
2013-08-10 17:13:00,65.3,57.9,30.05,South,189,6.0,12.0,77,0.00,,,0.00,meteohub,2013-08-11 00:13:00,
2013-08-10 17:18:00,65.1,58.1,30.05,South,183,6.0,14.0,78,0.00,,,0.00,meteohub,2013-08-11 00:18:00,
2013-08-10 17:23:00,64.9,57.9,30.05,South,174,8.0,14.0,78,0.00,,,0.00,meteohub,2013-08-11 00:23:00,
2013-08-10 17:28:00,64.8,58.1,30.05,South,183,11.0,16.0,79,0.00,,,0.00,meteohub,2013-08-11 00:28:00,
2013-08-10 17:33:00,64.8,58.5,30.05,SSW,192,11.0,16.0,80,0.00,,,0.00,meteohub,2013-08-11 00:33:00,
2013-08-10 17:38:00,64.8,58.5,30.05,South,174,7.0,14.0,80,0.00,,,0.00,meteohub,2013-08-11 00:38:00,
2013-08-10 17:43:00,64.9,58.3,30.05,South,173,4.0,14.0,79,0.00,,,0.00,meteohub,2013-08-11 00:43:00,
2013-08-10 17:48:00,65.1,58.5,30.05,South,189,10.0,13.0,79,0.00,,,0.00,meteohub,2013-08-11 00:48:00,
2013-08-10 17:53:00,65.1,58.8,30.05,SSE,163,8.0,15.0,80,0.00,,,0.00,meteohub,2013-08-11 00:53:00,
2013-08-10 17:58:00,65.1,58.8,30.05,SSW,193,7.0,15.0,80,0.00,,,0.00,meteohub,2013-08-11 00:58:00,
2013-08-10 18:03:00,65.1,58.8,30.04,SSE,167,6.0,13.0,80,0.00,,,0.00,meteohub,2013-08-11 01:03:00,
2013-08-10 18:08:00,64.8,58.8,30.04,SSW,196,7.0,11.0,81,0.00,,,0.00,meteohub,2013-08-11 01:08:00,
2013-08-10 18:13:00,64.6,59.0,30.04,SSW,195,6.0,11.0,82,0.00,,,0.00,meteohub,2013-08-11 01:13:00,
2013-08-10 18:18:00,64.6,59.0,30.04,South,181,11.0,12.0,82,0.00,,,0.00,meteohub,2013-08-11 01:18:00,
2013-08-10 18:23:00,64.8,59.2,30.04,South,186,3.0,13.0,82,0.00,,,0.00,meteohub,2013-08-11 01:23:00,
2013-08-10 18:28:00,65.1,59.2,30.04,South,183,8.0,13.0,81,0.00,,,0.00,meteohub,2013-08-11 01:28:00,
2013-08-10 18:33:00,65.5,59.2,30.04,SSW,195,10.0,13.0,80,0.00,,,0.00,meteohub,2013-08-11 01:33:00,
2013-08-10 18:38:00,65.5,59.2,30.04,South,186,5.0,10.0,80,0.00,,,0.00,meteohub,2013-08-11 01:38:00,
2013-08-10 18:43:00,65.8,59.2,30.04,South,187,6.0,10.0,79,0.00,,,0.00,meteohub,2013-08-11 01:43:00,
2013-08-10 18:48:00,65.8,59.2,30.04,South,173,4.0,10.0,79,0.00,,,0.00,meteohub,2013-08-11 01:48:00,
2013-08-10 18:53:00,65.5,59.2,30.04,South,172,5.0,9.0,80,0.00,,,0.00,meteohub,2013-08-11 01:53:00,
2013-08-10 18:58:00,64.8,58.8,30.04,South,183,7.0,10.0,81,0.00,,,0.00,meteohub,2013-08-11 01:58:00,
2013-08-10 19:03:00,64.6,59.0,30.04,South,184,7.0,12.0,82,0.00,,,0.00,meteohub,2013-08-11 02:03:00,
2013-08-10 19:07:00,64.2,58.6,30.04,SSE,168,6.0,12.0,82,0.00,,,0.00,meteohub,2013-08-11 02:07:00,
2013-08-10 19:12:00,64.0,58.8,30.04,South,184,7.0,11.0,83,0.00,,,0.00,meteohub,2013-08-11 02:12:00,
2013-08-10 19:17:00,63.5,58.6,30.04,South,181,8.0,10.0,84,0.00,,,0.00,meteohub,2013-08-11 02:17:00,
2013-08-10 19:22:00,63.0,58.5,30.04,SSE,168,6.0,10.0,85,0.00,,,0.00,meteohub,2013-08-11 02:22:00,
2013-08-10 19:27:00,62.8,58.5,30.04,SSE,163,6.0,11.0,86,0.00,,,0.00,meteohub,2013-08-11 02:27:00,
2013-08-10 19:32:00,62.2,57.9,30.04,SSE,157,8.0,11.0,86,0.00,,,0.00,meteohub,2013-08-11 02:32:00,
2013-08-10 19:37:00,62.2,58.3,30.04,South,190,9.0,11.0,87,0.00,,,0.00,meteohub,2013-08-11 02:37:00,
2013-08-10 19:42:00,62.1,58.1,30.04,South,183,5.0,11.0,87,0.00,,,0.00,meteohub,2013-08-11 02:42:00,
2013-08-10 19:47:00,62.1,58.1,30.04,South,170,5.0,11.0,87,0.00,,,0.00,meteohub,2013-08-11 02:47:00,
2013-08-10 19:52:00,62.2,58.3,30.04,South,170,6.0,11.0,87,0.00,,,0.00,meteohub,2013-08-11 02:52:00,
2013-08-10 19:58:00,62.2,58.3,30.04,South,185,2.0,9.0,87,0.00,,,0.00,meteohub,2013-08-11 02:58:00,
2013-08-10 20:03:00,62.1,58.1,30.04,South,180,2.0,8.0,87,0.00,,,0.00,meteohub,2013-08-11 03:03:00,
2013-08-10 20:08:00,62.2,58.3,30.04,South,191,6.0,8.0,87,0.00,,,0.00,meteohub,2013-08-11 03:08:00,
2013-08-10 20:14:00,62.2,58.3,30.05,South,191,7.0,8.0,87,0.00,,,0.00,meteohub,2013-08-11 03:14:00,
2013-08-10 20:19:00,62.1,58.1,30.05,South,179,5.0,8.0,87,0.00,,,0.00,meteohub,2013-08-11 03:19:00,
2013-08-10 20:24:00,62.1,58.1,30.04,SSW,203,6.0,9.0,87,0.00,,,0.00,meteohub,2013-08-11 03:24:00,
2013-08-10 20:29:00,61.9,57.9,30.04,SSW,206,5.0,9.0,87,0.00,,,0.00,meteohub,2013-08-11 03:29:00,
2013-08-10 20:34:00,61.9,57.9,30.05,SW,230,5.0,9.0,87,0.00,,,0.00,meteohub,2013-08-11 03:34:00,
2013-08-10 20:39:00,61.5,57.6,30.05,SW,215,7.0,9.0,87,0.00,,,0.00,meteohub,2013-08-11 03:39:00,
2013-08-10 20:45:00,61.5,57.9,30.05,SSW,199,6.0,8.0,88,0.00,,,0.00,meteohub,2013-08-11 03:45:00,
2013-08-10 20:50:00,61.3,57.7,30.05,SW,228,8.0,10.0,88,0.00,,,0.00,meteohub,2013-08-11 03:50:00,
2013-08-10 20:56:00,61.2,57.6,30.05,SW,224,6.0,10.0,88,0.00,,,0.00,meteohub,2013-08-11 03:56:00,
2013-08-10 21:01:00,61.0,57.4,30.05,SSW,211,4.0,10.0,88,0.00,,,0.00,meteohub,2013-08-11 04:01:00,
2013-08-10 21:02:00,61.0,57.7,30.05,SSW,197,7.0,10.0,89,0.00,,,0.00,meteohub,2013-08-11 04:02:00,
2013-08-10 21:04:00,61.0,57.7,30.05,SSW,208,5.0,10.0,89,0.00,,,0.00,meteohub,2013-08-11 04:04:00,
2013-08-10 21:09:00,60.8,57.6,30.06,SSW,210,8.0,10.0,89,0.00,,,0.00,meteohub,2013-08-11 04:09:00,
2013-08-10 21:14:00,60.6,57.4,30.06,SSW,206,1.0,10.0,89,0.00,,,0.00,meteohub,2013-08-11 04:14:00,
2013-08-10 21:19:00,60.6,57.4,30.06,SW,220,2.0,10.0,89,0.00,,,0.00,meteohub,2013-08-11 04:19:00,
2013-08-10 21:24:00,60.6,57.7,30.06,SW,219,4.0,10.0,90,0.00,,,0.00,meteohub,2013-08-11 04:24:00,
2013-08-10 21:29:00,60.4,57.6,30.06,SW,218,5.0,7.0,90,0.00,,,0.00,meteohub,2013-08-11 04:29:00,
2013-08-10 21:34:00,60.4,57.6,30.06,SW,218,5.0,7.0,90,0.00,,,0.00,meteohub,2013-08-11 04:34:00,
2013-08-10 21:39:00,60.3,57.4,30.06,SW,231,5.0,7.0,90,0.00,,,0.00,meteohub,2013-08-11 04:39:00,
2013-08-10 21:44:00,60.1,57.2,30.06,SSW,208,5.0,7.0,90,0.00,,,0.00,meteohub,2013-08-11 04:44:00,
2013-08-10 21:49:00,60.1,57.2,30.06,SW,214,4.0,9.0,90,0.00,,,0.00,meteohub,2013-08-11 04:49:00,
2013-08-10 21:54:00,60.1,57.4,30.06,SSW,198,4.0,9.0,91,0.00,,,0.00,meteohub,2013-08-11 04:54:00,
2013-08-10 21:59:00,60.1,57.4,30.06,SSW,201,6.0,8.0,91,0.00,,,0.00,meteohub,2013-08-11 04:59:00,
2013-08-10 22:04:00,59.9,57.2,30.06,SSW,204,2.0,7.0,91,0.00,,,0.00,meteohub,2013-08-11 05:04:00,
2013-08-10 22:09:00,60.1,57.4,30.06,SSW,204,5.0,6.0,91,0.00,,,0.00,meteohub,2013-08-11 05:09:00,
2013-08-10 22:15:00,59.9,57.2,30.07,SSW,205,4.0,6.0,91,0.00,,,0.00,meteohub,2013-08-11 05:15:00,
2013-08-10 22:20:00,59.9,57.2,30.06,South,191,5.0,7.0,91,0.00,,,0.00,meteohub,2013-08-11 05:20:00,
2013-08-10 22:25:00,59.9,57.2,30.06,SSW,194,7.0,7.0,91,0.00,,,0.00,meteohub,2013-08-11 05:25:00,
2013-08-10 22:30:00,59.9,57.2,30.06,South,171,3.0,7.0,91,0.00,,,0.00,meteohub,2013-08-11 05:30:00,
2013-08-10 22:36:00,59.7,57.0,30.06,South,184,5.0,8.0,91,0.00,,,0.00,meteohub,2013-08-11 05:36:00,
2013-08-10 22:41:00,59.5,57.2,30.06,South,183,3.0,8.0,92,0.00,,,0.00,meteohub,2013-08-11 05:41:00,
2013-08-10 22:46:00,59.5,57.2,30.06,SSE,162,2.0,8.0,92,0.00,,,0.00,meteohub,2013-08-11 05:46:00,
2013-08-10 22:51:00,59.5,57.2,30.06,South,170,4.0,6.0,92,0.00,,,0.00,meteohub,2013-08-11 05:51:00,
2013-08-10 22:57:00,59.4,57.0,30.06,SSE,160,7.0,9.0,92,0.00,,,0.00,meteohub,2013-08-11 05:57:00,
2013-08-10 23:03:00,59.4,57.0,30.06,South,181,7.0,9.0,92,0.00,,,0.00,meteohub,2013-08-11 06:03:00,
2013-08-10 23:08:00,59.2,56.8,30.06,SSE,162,4.0,8.0,92,0.00,,,0.00,meteohub,2013-08-11 06:08:00,
2013-08-10 23:13:00,59.0,56.7,30.06,South,179,9.0,9.0,92,0.00,,,0.00,meteohub,2013-08-11 06:13:00,
2013-08-10 23:18:00,58.8,56.5,30.06,SSE,164,9.0,9.0,92,0.00,,,0.00,meteohub,2013-08-11 06:18:00,
2013-08-10 23:24:00,58.5,56.1,30.07,South,170,5.0,12.0,92,0.00,,,0.00,meteohub,2013-08-11 06:24:00,
2013-08-10 23:29:00,58.5,56.5,30.07,South,183,9.0,12.0,93,0.00,,,0.00,meteohub,2013-08-11 06:29:00,
2013-08-10 23:35:00,58.5,56.5,30.07,South,177,4.0,12.0,93,0.00,,,0.00,meteohub,2013-08-11 06:35:00,
2013-08-10 23:40:00,58.5,56.5,30.06,South,170,9.0,11.0,93,0.00,,,0.00,meteohub,2013-08-11 06:40:00,
2013-08-10 23:45:00,58.3,56.3,30.07,SSE,161,7.0,14.0,93,0.00,,,0.00,meteohub,2013-08-11 06:45:00,
2013-08-10 23:51:00,58.3,56.3,30.06,SSE,167,8.0,14.0,93,0.00,,,0.00,meteohub,2013-08-11 06:51:00,
2013-08-10 23:56:00,57.9,55.9,30.06,SSW,195,7.0,14.0,93,0.00,,,0.00,meteohub,2013-08-11 06:56:00,